SCP
0 0 0 0 0 0 0 0 0 0 0 0 0 0 0 0 0 0 0 0 0 0 0 0 0 0 0 0 0 0 -0 0 0 -0 0 -0 0 0 0 0 0 0 0 0 0 0 0 -0 -0 0 0 0 0 0
0 0 0 0 0 0 0 0 0 0 0 0 0 0 0 0 0 0 0 0 0 0 0 -0 -0 -0 -0 0 0 0 0 -0 -0 0 0 0 0 0 0 0 0 0 0 -0 0 -0 0 0 0 0 0 0 0 0
0 0 0 0 0 0 0 0 0 0 0 0 0 0 0 0 0 0 0 0 0 0 0 0 0 0 0 0 0 0 0 -0 -0 0 0 0 0 0 0 0 0 0 0 0 0 0 0 0 0 0 0 0 0 -0
0 0 0 0 0 0 0 0 0 0 0 0 0 0 0 0 0 0 0 0 0 0 0 0 0 0 0 0 0 0 0 -0 -0 0 0 0 0 0 0 0 0 0 0 0 0 0 0 0 0 0 0 0 0 0
0 0 0 0 0 0 0 0 0 0 0 0 0 0 0 0 0 0 0 0 0 0 0 0 0 0 0 0 0 0 -0 0 -0 -0 -0 0 0 0 0 0 0 0 0 0 -0 -0 0 0 0 0 0 0 0 0
0 0 0 0 0 0 0 0 0 0 0 0 0 0 0 0 0 0 0 0 0 0 0 0 0 0 0 0 0 0 0 0 -0 -0 -0 0 0 0 0 0 0 0 0 0 0 0 0 0 0 0 0 0 0 0
0 0 0 0 0 0 0 0 0 0 0 0 0 0 0 0 0 0 0 0 0 0 0 0 0 0 0 0 0 0 0 0 -0 -0 -0 -0 0 0 0 0 -0 -0 0 0 0 0 0 0 0 0 0 0 0 0
0 0 0 0 0 0 0 0 0 0 0 0 0 0 0 0 0 0 0 0 0 0 0 0 0 0 0 0 0 0 0 0 -0 -0 0 -0 -0 0 -0 0 -0 0 0 0 -0 0 0 0 0 0 0 0 0 0
0 0 0 0 0 0 0 0 0 0 0 0 0 0 0 0 0 0 0 0 0 0 0 0 0 0 0 0 0 0 0 -0 -0 -0 0 -0 0 -0 0 0 -0 0 0 0 0 0 0 0 0 0 0 0 0 0
0 0 0 0 0 0 0 0 0 0 0 0 0 0 0 0 0 0 0 0 0 0 0 0 0 0 0 0 0 0 0 -0 -0 0 -0 0 0 0 0 0 0 0 0 0 0 0 0 0 0 0 0 0 0 0
0 0 0 0 0 0 0 0 0 0 0 0 0 0 0 0 0 0 0 0 0 0 0 0 0 0 0 0 0 0 0 -0 -0 0 0 0 0 0 0 -0 0 0 -0 -0 0 0 0 0 0 0 0 0 0 0
0 0 0 0 0 0 0 0 0 0 0 0 0 0 0 0 0 0 0 0 0 0 0 0 0 0 0 0 0 0 0 -0 -0 0 0 0 0 0 0 -0 0 -0 -0 -0 0 0 0 0 0 0 0 0 0 0
0 0 0 0 0 0 0 0 0 0 0 0 0 0 0 0 0 0 0 0 0 0 0 0 0 0 0 0 0 0 0 -0 0 -0 0 0 0 0 0 0 0 0 0 -0 0 0 0 0 0 0 0 0 0 0
0 0 0 0 0 0 0 0 0 0 0 0 0 0 0 0 0 0 0 0 0 0 0 0 0 0 0 -0 0 0 0 0 0 0 0 0 0 0 0 0 0 0 0 0 0 0 0 0 0 0 0 0 0 0
0 0 0 0 0 0 0 0 0 0 0 0 0 0 0 0 0 0 0 0 0 0 0 0 0 0 0 0 0 0 0 0 -0 -0 0 0 0 0 0 0 0 0 0 0 0 0 0 0 0 0 0 0 0 0
0 0 0 0 0 0 0 0 0 0 0 0 0 0 0 0 0 0 0 0 0 0 0 0 0 0 0 0 0 0 0 -0 -0 -0 0 -0 0 0 0 0 0 0 0 0 0 0 0 0 0 0 0 0 0 0
0 0 0 0 0 0 0 0 0 0 0 0 -0 0 0 0 0 0 0 0 0 0 0 0 0 0 0 0 0 0 0 0 -0 -0 0 -0 0 0 0 0 0 0 0 0 0 0 0 0 0 0 0 0 0 0
0 0 0 0 0 0 0 0 0 0 0 0 0 0 0 0 0 0 0 0 -0 0 0 0 0 0 0 0 0 0 0 0 -0 -0 0 0 0 0 0 0 0 0 0 0 0 0 0 0 0 0 0 0 0 0
0 0 0 0 0 0 0 0 0 0 0 0 0 0 0 0 0 0 0 0 0 0 0 0 0 0 0 0 0 0 0 0 -0 -0 0 0 0 0 0 0 0 0 0 0 0 0 0 0 0 0 0 0 0 0
0 0 0 -0 0 0 0 0 0 0 0 0 0 0 0 0 0 0 0 0 -0 0 0 0 0 0 0 0 0 0 0 0 0 0 0 0 0 0 0 0 0 0 0 0 0 0 0 0 0 0 0 0 0 0
0 0 0 0 0 0 0 0 0 0 0 0 0 0 0 0 0 0 -0 0 0 0 0 0 0 0 0 0 0 0 0 0 0 0 0 0 0 0 0 0 0 0 0 0 0 0 0 0 0 0 0 0 0 0
0 0 0 0 0 0 0 0 0 0 0 0 0 0 0 0 0 -0 0 0 0 -0 0 0 0 0 0 0 0 0 -0 -0 0 0 0 0 0 0 0 0 0 0 0 0 0 0 0 0 0 0 0 0 0 0
0 0 0 0 0 0 0 0 0 0 0 0 0 0 0 0 0 0 0 0 0 0 0 0 0 0 0 0 0 0 0 -0 0 -0 -0 0 0 0 0 0 0 0 0 0 0 0 0 0 0 0 0 0 0 0
0 0 0 0 0 0 0 0 0 0 0 0 0 0 0 0 0 0 0 0 0 0 0 0 0 0 0 0 0 0 0 0 0 -0 0 0 0 0 0 0 0 0 0 0 0 0 0 0 0 0 0 0 0 0
0 0 0 0 0 0 0 0 0 0 0 0 0 0 0 0 0 0 0 0 0 0 0 0 -0 -0 -0 0 0 0 0 0 -0 -0 -0 0 0 0 0 0 0 0 0 0 0 0 0 0 0 0 0 0 0 0
0 0 0 0 0 0 0 0 0 0 0 -0 -0 0 0 0 0 0 0 0 0 0 0 0 0 0 0 0 0 0 0 0 -0 0 0 0 0 0 0 0 0 0 0 0 0 0 0 0 0 -0 -0 0 0 0
0 0 0 0 0 0 0 0 0 0 0 -0 -0 -0 0 0 0 0 0 0 0 0 0 0 0 0 0 0 0 0 0 0 -0 0 0 0 -0 0 0 0 0 0 -0 -0 -0 0 0 0 0 -0 -0 0 -0 -0
0 0 0 0 0 0 0 0 0 0 0 0 0 -0 -0 0 0 0 0 0 0 0 0 0 0 0 0 0 0 0 0 0 0 0 0 0 0 0 0 0 0 0 0 0 0 0 0 0 0 -0 -0 -0 0 0
0 0 0 0 0 0 0 0 0 0 0 0 -0 0 -0 0 0 0 0 0 -0 0 -0 0 -0 -0 -0 -0 0 0 0 0 0 0 -0 0 0 0 0 0 0 0 0 -0 0 0 0 0 -0 -0 -0 -0 0 0
0 0 0 0 0 0 0 0 0 0 -0 0 0 0 0 0 0 0 0 -0 0 -0 0 0 -0 0 -0 0 -0 0 0 0 0 0 0 0 0 0 0 0 0 0 0 0 0 0 0 0 0 0 0 0 0 0
0 0 0 0 0 0 0 0 0 -0 -0 -0 0 0 0 0 0 0 0 0 -0 0 0 0 -0 -0 -0 0 0 0 0 0 0 0 0 0 0 0 0 0 0 0 0 0 0 0 0 0 0 0 0 0 0 0
0 0 0 0 0 0 0 0 0 0 0 0 -0 0 0 0 0 0 0 0 0 0 0 0 -0 -0 0 0 -0 -0 -0 0 0 0 0 0 0 0 0 0 0 0 0 0 0 0 0 0 0 0 0 0 0 0
0 0 0 0 0 0 0 0 0 0 0 0 0 0 0 0 0 0 0 0 0 -0 -0 -0 -0 -0 0 0 0 -0 -0 0 0 0 0 0 0 0 0 0 0 0 0 0 0 0 0 0 0 0 0 0 0 0
Wind_Speed_500mb
71 71 67 63 60 59 53 53 58 62 56 52 48 34 29 31 28 22 14 14 7 14 39 20 18 26 26 21 9 29 21 12 7 12 8 8 7 10 9 8 14 10 14 10 12 10 8 52 30 11 17 17 13 29
74 72 70 63 58 59 63 63 62 62 49 48 44 32 29 27 26 23 9 10 16 21 31 42 45 45 44 40 34 13 9 12 7 6 5 6 6 9 19 6 15 5 6 9 8 7 20 43 25 29 13 15 28 37
80 74 68 68 62 65 69 75 65 61 44 40 38 31 31 28 21 20 17 16 16 21 36 15 9 16 19 25 27 13 10 10 16 20 7 4 8 3 7 6 9 16 8 5 9 2 17 35 33 29 22 30 37 43
71 77 68 68 67 70 77 64 60 54 38 34 35 28 30 28 20 22 20 12 11 11 10 8 18 19 23 22 29 35 31 34 28 23 7 4 6 6 4 5 4 7 17 13 8 8 19 32 36 32 37 47 55 53
62 62 62 59 59 60 57 58 58 40 33 29 30 25 30 27 24 23 21 17 14 6 10 33 38 11 11 19 23 27 34 33 15 8 5 2 4 7 4 5 4 8 6 6 6 23 6 18 28 31 45 42 54 76
55 58 59 59 60 62 63 53 46 31 31 24 26 26 28 25 22 13 4 7 11 17 8 8 21 15 11 20 25 26 28 20 12 12 4 5 2 8 5 4 6 32 17 15 4 11 23 30 35 38 51 50 57 71
48 50 55 59 55 54 45 36 26 28 23 21 20 22 21 23 23 9 6 12 9 8 7 11 13 8 15 14 11 9 17 10 9 11 4 7 6 9 4 7 32 38 7 12 2 12 20 26 25 46 57 62 70 73
46 45 46 45 44 37 32 24 16 17 18 20 20 17 20 23 24 15 13 22 17 8 7 6 9 14 6 16 11 4 5 5 8 6 9 9 9 7 2 16 32 13 9 12 16 20 31 34 45 49 57 71 76 72
39 36 36 34 32 28 24 20 17 19 19 15 11 16 21 13 9 6 8 8 18 11 5 8 6 7 8 18 14 4 3 3 4 2 4 8 5 5 8 27 26 24 13 23 25 30 33 38 43 49 59 69 76 73
35 32 27 21 18 19 19 16 17 12 16 22 11 7 10 8 10 6 4 7 16 10 12 12 20 11 16 23 5 7 1 3 4 5 2 3 1 9 11 11 8 16 21 23 30 29 38 41 52 55 58 64 72 74
28 24 23 19 21 21 18 15 18 25 25 8 8 8 9 11 8 8 8 12 15 9 13 14 20 17 8 14 8 7 6 4 4 3 6 4 2 6 9 3 7 9 11 14 22 26 37 49 50 56 56 52 52 54
29 24 23 23 27 27 21 20 24 28 17 16 9 8 10 11 10 8 8 8 11 8 15 12 10 12 9 7 5 3 4 4 3 5 4 4 2 3 7 7 9 14 11 21 23 35 42 42 46 52 57 54 49 50
32 25 21 28 30 22 25 27 26 24 22 15 7 5 10 12 11 12 13 9 8 13 13 13 6 5 7 10 7 4 4 3 8 3 5 3 8 6 6 11 14 15 21 28 35 36 42 39 45 44 50 45 46 43
30 30 29 30 20 24 24 22 24 25 16 8 10 8 12 12 12 11 14 6 7 9 6 6 10 6 4 7 3 4 3 5 5 2 4 3 9 12 12 13 19 21 26 32 35 39 42 44 43 42 42 41 43 43
37 34 30 32 29 33 30 28 29 33 10 8 11 10 15 18 8 11 14 12 14 9 8 9 9 8 7 7 5 5 4 6 3 5 6 4 18 20 18 19 26 20 30 33 35 38 40 42 41 39 38 40 41 43
37 29 33 31 27 34 28 21 24 17 5 9 15 11 13 8 17 18 19 22 13 13 9 10 5 5 7 4 6 8 3 6 4 5 4 15 24 26 26 29 35 23 31 31 31 35 38 39 39 39 37 36 36 37
29 26 24 24 29 32 25 30 17 12 10 10 13 20 24 13 11 16 17 16 13 14 9 5 7 4 1 6 6 4 3 8 11 3 10 21 30 33 30 31 37 27 30 32 34 34 34 36 38 37 36 33 35 36
32 27 30 25 35 31 26 16 10 10 15 21 15 11 17 18 17 12 18 18 12 11 10 4 4 8 6 7 4 4 9 8 7 10 21 27 33 34 30 35 34 33 33 32 33 35 37 37 36 35 37 37 38 38
28 28 29 23 30 21 12 15 11 9 21 17 20 22 20 18 18 24 16 15 13 11 6 6 7 8 7 5 11 12 4 5 15 22 25 33 40 32 36 35 36 34 33 36 35 32 33 34 34 38 38 38 37 37
26 23 16 23 31 8 10 9 11 10 10 3 14 19 19 16 10 21 28 25 25 11 12 8 6 3 4 8 5 7 3 17 25 34 39 40 35 31 37 38 37 34 32 32 29 35 36 35 34 35 34 35 38 39
37 33 26 28 21 5 3 6 12 11 9 10 10 12 14 13 21 25 26 24 20 14 12 16 13 10 5 4 2 3 12 24 32 39 48 46 33 35 33 32 35 28 29 31 31 32 35 35 36 35 38 35 35 34
30 38 25 20 5 7 9 13 9 4 8 10 11 15 13 20 22 25 20 19 14 26 21 18 12 10 9 8 7 8 17 30 38 37 35 35 39 40 36 31 33 39 35 33 35 37 33 33 35 36 35 33 33 32
32 33 13 10 9 14 9 10 9 8 7 5 7 8 9 11 11 13 10 15 17 14 14 11 9 8 7 7 9 13 24 35 50 42 43 29 29 33 31 32 33 37 40 38 36 36 36 38 41 38 35 35 33 32
23 16 10 10 14 7 7 10 10 8 8 11 8 8 8 11 10 10 8 7 8 9 10 13 13 11 9 11 14 15 24 30 35 52 37 47 25 33 38 39 35 33 36 41 41 40 41 43 43 39 38 37 34 34
9 12 7 9 12 8 8 7 10 11 9 12 9 8 7 11 9 9 8 5 6 10 11 13 15 13 11 8 8 13 20 29 42 49 55 32 34 33 30 32 33 34 40 45 44 45 47 45 43 40 40 38 36 34
8 14 10 12 9 9 10 6 10 13 8 10 12 5 7 5 4 3 4 5 5 8 8 10 13 11 15 13 9 11 17 23 27 38 48 50 38 36 41 43 40 38 40 45 48 49 49 46 44 42 39 37 38 34
6 10 11 11 6 7 9 12 11 7 7 7 4 7 8 7 6 5 7 7 4 4 4 4 4 9 12 16 16 15 15 22 26 28 37 55 56 34 35 40 39 39 45 45 46 46 46 45 42 41 38 36 37 35
7 5 10 17 13 13 5 5 4 5 5 6 5 5 0 2 4 4 7 14 12 11 19 24 21 17 7 2 8 14 18 19 22 25 26 39 57 55 32 33 38 44 47 45 44 42 41 41 40 40 39 38 37 38
8 9 13 12 11 9 6 6 7 5 6 7 3 2 2 3 5 10 18 20 23 26 26 22 20 21 26 21 7 11 21 24 23 33 35 46 49 64 52 36 40 45 48 49 48 38 34 33 37 38 38 37 35 35
7 14 9 8 7 9 7 7 7 5 8 3 12 12 13 19 29 22 16 9 7 15 20 17 12 14 19 23 27 31 8 27 25 30 33 47 58 57 77 62 41 44 46 44 51 41 30 20 30 36 36 33 35 37
5 13 6 8 7 8 2 3 8 9 3 13 28 21 26 24 22 19 17 13 13 12 11 14 17 16 16 18 18 19 22 4 21 34 20 31 48 54 70 66 52 52 46 44 38 32 30 24 24 33 36 37 37 40
12 13 8 7 6 2 4 3 5 7 15 18 23 24 20 18 13 8 12 9 8 12 14 13 12 12 15 18 17 10 20 10 15 13 31 35 31 51 58 79 60 54 50 39 37 29 25 24 29 35 33 35 34 39
8 10 12 5 2 5 5 6 10 7 6 6 9 9 10 8 7 6 6 8 9 12 14 12 9 8 12 14 13 10 10 17 11 17 28 30 29 34 39 38 54 77 77 56 43 39 34 31 37 33 32 32 34 38
Wind_Direction_500mb
292 293 296 299 300 304 308 312 312 315 318 320 318 318 318 322 324 329 316 300 271 276 292 266 283 268 286 274 302 327 333 16 299 357 345 346 311 341 313 7 336 349 324 359 336 5 37 348 345 24 308 322 116 70
290 289 290 290 292 296 301 303 303 307 313 317 313 308 307 311 314 318 339 302 290 267 271 288 275 262 253 262 289 295 287 303 323 323 350 308 314 323 331 357 0 10 25 305 334 14 305 310 322 320 338 62 94 105
279 285 285 282 283 288 295 297 293 298 299 309 305 304 303 305 304 308 296 305 300 287 310 269 291 272 270 260 239 239 264 291 320 327 298 281 282 331 320 34 300 345 31 276 295 30 330 359 7 23 71 95 108 106
281 277 284 283 281 287 290 290 293 297 296 303 296 296 296 296 296 306 293 286 276 293 290 306 298 285 289 252 234 244 268 293 300 303 256 276 284 31 319 302 348 337 308 323 284 306 322 11 18 47 80 106 110 101
287 280 282 288 285 282 284 289 287 286 290 289 295 290 290 285 296 314 303 253 253 255 299 300 306 289 238 258 248 249 256 270 292 287 265 273 316 321 277 245 85 329 318 338 326 333 19 16 34 84 94 103 113 115
288 278 284 286 284 284 285 282 285 282 286 276 293 286 284 280 302 327 235 261 244 242 294 300 316 288 257 270 268 262 247 245 253 291 278 286 340 327 300 312 62 349 338 350 342 58 66 67 77 93 105 109 110 113
301 286 282 288 283 280 268 270 265 275 280 285 282 278 273 282 292 240 240 218 229 253 267 286 291 261 282 282 292 258 239 233 258 293 271 317 334 335 313 334 330 333 316 355 134 100 54 70 70 93 104 107 117 112
306 298 295 288 285 264 253 245 260 271 286 284 280 280 278 283 286 282 226 236 232 235 249 276 285 276 239 308 324 271 258 209 238 293 319 324 319 320 9 325 337 359 29 64 73 105 120 110 110 102 107 118 107 104
303 300 293 287 269 253 244 234 242 249 258 261 267 281 280 255 233 211 226 226 200 207 260 245 274 306 322 304 306 262 31 283 278 280 353 322 336 5 327 328 356 47 97 116 98 97 109 115 108 101 103 104 103 100
301 298 283 263 250 246 242 224 235 248 262 263 266 234 237 208 168 203 222 200 196 220 228 257 248 269 312 329 307 313 167 270 293 60 296 340 24 319 339 354 39 71 115 123 108 101 108 101 106 104 104 109 112 112
300 291 264 234 231 233 218 219 240 252 239 179 205 226 220 171 166 211 224 210 180 216 220 241 244 278 294 298 333 24 325 342 281 62 310 328 348 344 2 34 58 132 104 123 127 128 123 117 112 110 102 101 103 112
287 271 254 235 241 235 223 225 233 232 192 192 191 194 180 202 212 230 208 207 213 235 188 223 238 242 293 258 263 162 296 288 317 357 276 301 80 0 19 82 90 128 134 124 129 127 127 118 115 117 122 113 111 114
275 265 255 245 231 222 231 231 231 216 204 202 189 204 208 190 223 206 204 208 214 194 194 202 244 259 206 228 255 152 247 254 316 251 300 343 120 131 106 117 111 126 133 132 131 130 137 128 133 123 122 113 119 115
286 265 256 237 240 217 240 230 217 193 170 181 187 220 216 200 219 201 227 210 180 200 198 255 272 239 224 239 185 261 173 299 268 281 263 46 166 154 139 138 127 120 121 121 127 134 134 127 122 123 124 127 127 123
278 255 250 240 226 242 240 234 214 180 164 213 217 234 220 238 246 225 225 233 216 237 243 245 236 239 223 248 224 146 191 244 231 254 358 109 164 159 152 146 141 120 131 123 125 127 126 128 130 129 130 130 129 128
280 265 243 233 231 226 218 211 160 167 220 231 231 254 236 257 239 227 225 234 223 232 218 234 244 241 230 273 239 210 218 230 220 319 59 167 165 159 156 157 146 127 135 133 135 135 136 136 136 132 131 132 134 133
279 262 255 228 217 222 224 169 142 203 227 235 241 242 254 276 261 228 224 234 215 214 229 192 222 207 103 238 251 194 300 349 354 290 171 173 165 161 166 163 153 140 142 139 141 139 137 139 138 136 135 136 136 137
263 248 244 211 195 169 161 146 177 214 243 238 245 262 238 245 255 228 223 228 226 223 223 237 298 224 232 252 289 289 323 55 340 152 153 158 167 159 148 148 150 144 143 142 141 142 142 143 142 141 138 137 135 137
274 241 236 239 210 151 155 184 202 243 237 252 254 255 249 251 244 233 234 228 234 252 253 229 243 242 238 269 314 316 359 137 147 144 151 161 158 139 147 146 144 138 141 141 143 144 147 146 148 144 145 143 143 141
243 210 205 170 153 152 167 195 203 251 256 262 248 248 238 241 241 228 227 230 227 217 216 228 244 280 280 299 304 320 90 153 150 144 146 158 151 149 149 149 142 140 140 146 144 146 146 146 148 148 148 151 149 150
155 158 160 167 189 162 222 225 225 240 282 258 259 250 251 223 227 223 223 214 209 223 228 238 242 256 223 219 245 219 163 159 155 151 153 152 149 152 148 150 154 150 152 157 157 155 151 152 151 153 150 147 150 145
162 164 159 173 156 207 256 232 248 289 249 267 269 234 245 213 214 218 212 206 229 232 229 256 266 257 222 224 221 182 168 169 163 161 166 169 172 168 164 165 166 177 174 166 169 164 158 155 154 153 149 151 150 153
172 170 151 164 207 211 250 204 228 214 248 223 221 232 212 214 211 192 220 216 223 224 229 230 211 195 213 201 178 167 167 176 179 175 178 177 181 176 171 177 173 168 172 178 172 160 162 164 159 156 160 154 155 159
172 162 182 205 209 226 205 211 214 232 235 232 219 241 194 192 184 210 239 209 179 178 194 193 190 195 207 206 194 180 176 183 187 186 189 194 181 165 172 177 177 173 169 166 168 168 169 165 164 164 163 163 162 164
154 195 210 210 202 223 220 211 207 211 238 215 232 233 186 172 199 208 221 180 183 198 191 196 200 207 215 228 177 183 184 180 190 191 203 195 175 178 176 174 174 177 175 169 170 169 167 171 168 170 169 168 167 165
207 199 206 208 192 221 201 235 211 213 219 210 217 241 193 214 201 193 121 84 132 164 185 210 212 202 217 232 234 214 203 192 196 198 196 192 180 177 175 172 171 172 178 176 172 172 172 173 172 172 172 174 173 170
233 202 201 223 255 227 249 248 255 263 232 229 206 197 198 172 196 102 121 100 126 114 101 98 159 204 223 239 243 227 206 195 203 207 206 195 194 174 181 177 177 178 171 174 173 172 171 172 175 177 178 181 185 183
255 251 220 188 211 230 284 280 270 252 241 220 236 197 301 133 87 80 94 99 92 119 121 104 84 71 61 252 230 211 192 187 191 194 191 195 196 193 174 173 178 185 175 174 173 174 177 179 183 187 189 192 196 200
226 212 208 210 207 216 228 232 248 257 333 339 46 122 222 101 94 116 123 103 98 115 104 104 98 78 52 43 60 197 188 185 178 180 191 187 191 190 184 172 173 180 182 185 181 184 192 199 205 206 207 206 207 208
212 196 216 212 222 218 228 232 311 355 354 94 115 121 100 94 111 108 132 148 126 114 113 100 96 86 70 50 44 38 161 206 201 192 187 197 197 188 187 185 177 177 183 186 188 193 194 197 200 203 202 202 202 201
180 191 226 231 244 223 296 1 38 45 43 171 159 127 121 120 105 91 86 94 104 100 92 81 76 68 60 46 40 27 17 90 202 214 236 189 200 195 191 183 191 182 181 183 186 195 202 215 204 198 204 201 200 201
190 202 216 223 206 246 328 65 52 82 95 93 132 139 135 131 112 96 98 89 107 92 91 89 87 75 66 43 20 36 22 80 87 168 197 179 186 195 203 199 201 204 193 193 196 205 215 221 211 205 204 205 211 207
205 207 227 265 320 191 157 162 179 105 72 123 132 134 109 101 101 117 91 82 108 132 136 120 93 57 38 20 11 34 49 62 101 92 147 164 169 185 181 185 202 212 209 195 201 210 226 222 206 206 211 213 207 203
Wind_Speed_850mb
71 71 67 63 60 59 53 53 58 62 56 52 48 34 29 31 28 22 14 14 7 14 39 20 18 26 26 21 9 29 21 12 7 12 8 8 7 10 9 8 14 10 14 10 12 10 8 52 30 11 17 17 13 29
74 72 70 63 58 59 63 63 62 62 49 48 44 32 29 27 26 23 9 10 16 21 31 42 45 45 44 40 34 13 9 12 7 6 5 6 6 9 19 6 15 5 6 9 8 7 20 43 25 29 13 15 28 37
80 74 68 68 62 65 69 75 65 61 44 40 38 31 31 28 21 20 17 16 16 21 36 15 9 16 19 25 27 13 10 10 16 20 7 4 8 3 7 6 9 16 8 5 9 2 17 35 33 29 22 30 37 43
71 77 68 68 67 70 77 64 60 54 38 34 35 28 30 28 20 22 20 12 11 11 10 8 18 19 23 22 29 35 31 34 28 23 7 4 6 6 4 5 4 7 17 13 8 8 19 32 36 32 37 47 55 53
62 62 62 59 59 60 57 58 58 40 33 29 30 25 30 27 24 23 21 17 14 6 10 33 38 11 11 19 23 27 34 33 15 8 5 2 4 7 4 5 4 8 6 6 6 23 6 18 28 31 45 42 54 76
55 58 59 59 60 62 63 53 46 31 31 24 26 26 28 25 22 13 4 7 11 17 8 8 21 15 11 20 25 26 28 20 12 12 4 5 2 8 5 4 6 32 17 15 4 11 23 30 35 38 51 50 57 71
48 50 55 59 55 54 45 36 26 28 23 21 20 22 21 23 23 9 6 12 9 8 7 11 13 8 15 14 11 9 17 10 9 11 4 7 6 9 4 7 32 38 7 12 2 12 20 26 25 46 57 62 70 73
46 45 46 45 44 37 32 24 16 17 18 20 20 17 20 23 24 15 13 22 17 8 7 6 9 14 6 16 11 4 5 5 8 6 9 9 9 7 2 16 32 13 9 12 16 20 31 34 45 49 57 71 76 72
39 36 36 34 32 28 24 20 17 19 19 15 11 16 21 13 9 6 8 8 18 11 5 8 6 7 8 18 14 4 3 3 4 2 4 8 5 5 8 27 26 24 13 23 25 30 33 38 43 49 59 69 76 73
35 32 27 21 18 19 19 16 17 12 16 22 11 7 10 8 10 6 4 7 16 10 12 12 20 11 16 23 5 7 1 3 4 5 2 3 1 9 11 11 8 16 21 23 30 29 38 41 52 55 58 64 72 74
28 24 23 19 21 21 18 15 18 25 25 8 8 8 9 11 8 8 8 12 15 9 13 14 20 17 8 14 8 7 6 4 4 3 6 4 2 6 9 3 7 9 11 14 22 26 37 49 50 56 56 52 52 54
29 24 23 23 27 27 21 20 24 28 17 16 9 8 10 11 10 8 8 8 11 8 15 12 10 12 9 7 5 3 4 4 3 5 4 4 2 3 7 7 9 14 11 21 23 35 42 42 46 52 57 54 49 50
32 25 21 28 30 22 25 27 26 24 22 15 7 5 10 12 11 12 13 9 8 13 13 13 6 5 7 10 7 4 4 3 8 3 5 3 8 6 6 11 14 15 21 28 35 36 42 39 45 44 50 45 46 43
30 30 29 30 20 24 24 22 24 25 16 8 10 8 12 12 12 11 14 6 7 9 6 6 10 6 4 7 3 4 3 5 5 2 4 3 9 12 12 13 19 21 26 32 35 39 42 44 43 42 42 41 43 43
37 34 30 32 29 33 30 28 29 33 10 8 11 10 15 18 8 11 14 12 14 9 8 9 9 8 7 7 5 5 4 6 3 5 6 4 18 20 18 19 26 20 30 33 35 38 40 42 41 39 38 40 41 43
37 29 33 31 27 34 28 21 24 17 5 9 15 11 13 8 17 18 19 22 13 13 9 10 5 5 7 4 6 8 3 6 4 5 4 15 24 26 26 29 35 23 31 31 31 35 38 39 39 39 37 36 36 37
29 26 24 24 29 32 25 30 17 12 10 10 13 20 24 13 11 16 17 16 13 14 9 5 7 4 1 6 6 4 3 8 11 3 10 21 30 33 30 31 37 27 30 32 34 34 34 36 38 37 36 33 35 36
32 27 30 25 35 31 26 16 10 10 15 21 15 11 17 18 17 12 18 18 12 11 10 4 4 8 6 7 4 4 9 8 7 10 21 27 33 34 30 35 34 33 33 32 33 35 37 37 36 35 37 37 38 38
28 28 29 23 30 21 12 15 11 9 21 17 20 22 20 18 18 24 16 15 13 11 6 6 7 8 7 5 11 12 4 5 15 22 25 33 40 32 36 35 36 34 33 36 35 32 33 34 34 38 38 38 37 37
26 23 16 23 31 8 10 9 11 10 10 3 14 19 19 16 10 21 28 25 25 11 12 8 6 3 4 8 5 7 3 17 25 34 39 40 35 31 37 38 37 34 32 32 29 35 36 35 34 35 34 35 38 39
37 33 26 28 21 5 3 6 12 11 9 10 10 12 14 13 21 25 26 24 20 14 12 16 13 10 5 4 2 3 12 24 32 39 48 46 33 35 33 32 35 28 29 31 31 32 35 35 36 35 38 35 35 34
30 38 25 20 5 7 9 13 9 4 8 10 11 15 13 20 22 25 20 19 14 26 21 18 12 10 9 8 7 8 17 30 38 37 35 35 39 40 36 31 33 39 35 33 35 37 33 33 35 36 35 33 33 32
32 33 13 10 9 14 9 10 9 8 7 5 7 8 9 11 11 13 10 15 17 14 14 11 9 8 7 7 9 13 24 35 50 42 43 29 29 33 31 32 33 37 40 38 36 36 36 38 41 38 35 35 33 32
23 16 10 10 14 7 7 10 10 8 8 11 8 8 8 11 10 10 8 7 8 9 10 13 13 11 9 11 14 15 24 30 35 52 37 47 25 33 38 39 35 33 36 41 41 40 41 43 43 39 38 37 34 34
9 12 7 9 12 8 8 7 10 11 9 12 9 8 7 11 9 9 8 5 6 10 11 13 15 13 11 8 8 13 20 29 42 49 55 32 34 33 30 32 33 34 40 45 44 45 47 45 43 40 40 38 36 34
8 14 10 12 9 9 10 6 10 13 8 10 12 5 7 5 4 3 4 5 5 8 8 10 13 11 15 13 9 11 17 23 27 38 48 50 38 36 41 43 40 38 40 45 48 49 49 46 44 42 39 37 38 34
6 10 11 11 6 7 9 12 11 7 7 7 4 7 8 7 6 5 7 7 4 4 4 4 4 9 12 16 16 15 15 22 26 28 37 55 56 34 35 40 39 39 45 45 46 46 46 45 42 41 38 36 37 35
7 5 10 17 13 13 5 5 4 5 5 6 5 5 0 2 4 4 7 14 12 11 19 24 21 17 7 2 8 14 18 19 22 25 26 39 57 55 32 33 38 44 47 45 44 42 41 41 40 40 39 38 37 38
8 9 13 12 11 9 6 6 7 5 6 7 3 2 2 3 5 10 18 20 23 26 26 22 20 21 26 21 7 11 21 24 23 33 35 46 49 64 52 36 40 45 48 49 48 38 34 33 37 38 38 37 35 35
7 14 9 8 7 9 7 7 7 5 8 3 12 12 13 19 29 22 16 9 7 15 20 17 12 14 19 23 27 31 8 27 25 30 33 47 58 57 77 62 41 44 46 44 51 41 30 20 30 36 36 33 35 37
5 13 6 8 7 8 2 3 8 9 3 13 28 21 26 24 22 19 17 13 13 12 11 14 17 16 16 18 18 19 22 4 21 34 20 31 48 54 70 66 52 52 46 44 38 32 30 24 24 33 36 37 37 40
12 13 8 7 6 2 4 3 5 7 15 18 23 24 20 18 13 8 12 9 8 12 14 13 12 12 15 18 17 10 20 10 15 13 31 35 31 51 58 79 60 54 50 39 37 29 25 24 29 35 33 35 34 39
8 10 12 5 2 5 5 6 10 7 6 6 9 9 10 8 7 6 6 8 9 12 14 12 9 8 12 14 13 10 10 17 11 17 28 30 29 34 39 38 54 77 77 56 43 39 34 31 37 33 32 32 34 38
Wind_Direction_850mb
292 293 296 299 300 304 308 312 312 315 318 320 318 318 318 322 324 329 316 300 271 276 292 266 283 268 286 274 302 327 333 16 299 357 345 346 311 341 313 7 336 349 324 359 336 5 37 348 345 24 308 322 116 70
290 289 290 290 292 296 301 303 303 307 313 317 313 308 307 311 314 318 339 302 290 267 271 288 275 262 253 262 289 295 287 303 323 323 350 308 314 323 331 357 0 10 25 305 334 14 305 310 322 320 338 62 94 105
279 285 285 282 283 288 295 297 293 298 299 309 305 304 303 305 304 308 296 305 300 287 310 269 291 272 270 260 239 239 264 291 320 327 298 281 282 331 320 34 300 345 31 276 295 30 330 359 7 23 71 95 108 106
281 277 284 283 281 287 290 290 293 297 296 303 296 296 296 296 296 306 293 286 276 293 290 306 298 285 289 252 234 244 268 293 300 303 256 276 284 31 319 302 348 337 308 323 284 306 322 11 18 47 80 106 110 101
287 280 282 288 285 282 284 289 287 286 290 289 295 290 290 285 296 314 303 253 253 255 299 300 306 289 238 258 248 249 256 270 292 287 265 273 316 321 277 245 85 329 318 338 326 333 19 16 34 84 94 103 113 115
288 278 284 286 284 284 285 282 285 282 286 276 293 286 284 280 302 327 235 261 244 242 294 300 316 288 257 270 268 262 247 245 253 291 278 286 340 327 300 312 62 349 338 350 342 58 66 67 77 93 105 109 110 113
301 286 282 288 283 280 268 270 265 275 280 285 282 278 273 282 292 240 240 218 229 253 267 286 291 261 282 282 292 258 239 233 258 293 271 317 334 335 313 334 330 333 316 355 134 100 54 70 70 93 104 107 117 112
306 298 295 288 285 264 253 245 260 271 286 284 280 280 278 283 286 282 226 236 232 235 249 276 285 276 239 308 324 271 258 209 238 293 319 324 319 320 9 325 337 359 29 64 73 105 120 110 110 102 107 118 107 104
303 300 293 287 269 253 244 234 242 249 258 261 267 281 280 255 233 211 226 226 200 207 260 245 274 306 322 304 306 262 31 283 278 280 353 322 336 5 327 328 356 47 97 116 98 97 109 115 108 101 103 104 103 100
301 298 283 263 250 246 242 224 235 248 262 263 266 234 237 208 168 203 222 200 196 220 228 257 248 269 312 329 307 313 167 270 293 60 296 340 24 319 339 354 39 71 115 123 108 101 108 101 106 104 104 109 112 112
300 291 264 234 231 233 218 219 240 252 239 179 205 226 220 171 166 211 224 210 180 216 220 241 244 278 294 298 333 24 325 342 281 62 310 328 348 344 2 34 58 132 104 123 127 128 123 117 112 110 102 101 103 112
287 271 254 235 241 235 223 225 233 232 192 192 191 194 180 202 212 230 208 207 213 235 188 223 238 242 293 258 263 162 296 288 317 357 276 301 80 0 19 82 90 128 134 124 129 127 127 118 115 117 122 113 111 114
275 265 255 245 231 222 231 231 231 216 204 202 189 204 208 190 223 206 204 208 214 194 194 202 244 259 206 228 255 152 247 254 316 251 300 343 120 131 106 117 111 126 133 132 131 130 137 128 133 123 122 113 119 115
286 265 256 237 240 217 240 230 217 193 170 181 187 220 216 200 219 201 227 210 180 200 198 255 272 239 224 239 185 261 173 299 268 281 263 46 166 154 139 138 127 120 121 121 127 134 134 127 122 123 124 127 127 123
278 255 250 240 226 242 240 234 214 180 164 213 217 234 220 238 246 225 225 233 216 237 243 245 236 239 223 248 224 146 191 244 231 254 358 109 164 159 152 146 141 120 131 123 125 127 126 128 130 129 130 130 129 128
280 265 243 233 231 226 218 211 160 167 220 231 231 254 236 257 239 227 225 234 223 232 218 234 244 241 230 273 239 210 218 230 220 319 59 167 165 159 156 157 146 127 135 133 135 135 136 136 136 132 131 132 134 133
279 262 255 228 217 222 224 169 142 203 227 235 241 242 254 276 261 228 224 234 215 214 229 192 222 207 103 238 251 194 300 349 354 290 171 173 165 161 166 163 153 140 142 139 141 139 137 139 138 136 135 136 136 137
263 248 244 211 195 169 161 146 177 214 243 238 245 262 238 245 255 228 223 228 226 223 223 237 298 224 232 252 289 289 323 55 340 152 153 158 167 159 148 148 150 144 143 142 141 142 142 143 142 141 138 137 135 137
274 241 236 239 210 151 155 184 202 243 237 252 254 255 249 251 244 233 234 228 234 252 253 229 243 242 238 269 314 316 359 137 147 144 151 161 158 139 147 146 144 138 141 141 143 144 147 146 148 144 145 143 143 141
243 210 205 170 153 152 167 195 203 251 256 262 248 248 238 241 241 228 227 230 227 217 216 228 244 280 280 299 304 320 90 153 150 144 146 158 151 149 149 149 142 140 140 146 144 146 146 146 148 148 148 151 149 150
155 158 160 167 189 162 222 225 225 240 282 258 259 250 251 223 227 223 223 214 209 223 228 238 242 256 223 219 245 219 163 159 155 151 153 152 149 152 148 150 154 150 152 157 157 155 151 152 151 153 150 147 150 145
162 164 159 173 156 207 256 232 248 289 249 267 269 234 245 213 214 218 212 206 229 232 229 256 266 257 222 224 221 182 168 169 163 161 166 169 172 168 164 165 166 177 174 166 169 164 158 155 154 153 149 151 150 153
172 170 151 164 207 211 250 204 228 214 248 223 221 232 212 214 211 192 220 216 223 224 229 230 211 195 213 201 178 167 167 176 179 175 178 177 181 176 171 177 173 168 172 178 172 160 162 164 159 156 160 154 155 159
172 162 182 205 209 226 205 211 214 232 235 232 219 241 194 192 184 210 239 209 179 178 194 193 190 195 207 206 194 180 176 183 187 186 189 194 181 165 172 177 177 173 169 166 168 168 169 165 164 164 163 163 162 164
154 195 210 210 202 223 220 211 207 211 238 215 232 233 186 172 199 208 221 180 183 198 191 196 200 207 215 228 177 183 184 180 190 191 203 195 175 178 176 174 174 177 175 169 170 169 167 171 168 170 169 168 167 165
207 199 206 208 192 221 201 235 211 213 219 210 217 241 193 214 201 193 121 84 132 164 185 210 212 202 217 232 234 214 203 192 196 198 196 192 180 177 175 172 171 172 178 176 172 172 172 173 172 172 172 174 173 170
233 202 201 223 255 227 249 248 255 263 232 229 206 197 198 172 196 102 121 100 126 114 101 98 159 204 223 239 243 227 206 195 203 207 206 195 194 174 181 177 177 178 171 174 173 172 171 172 175 177 178 181 185 183
255 251 220 188 211 230 284 280 270 252 241 220 236 197 301 133 87 80 94 99 92 119 121 104 84 71 61 252 230 211 192 187 191 194 191 195 196 193 174 173 178 185 175 174 173 174 177 179 183 187 189 192 196 200
226 212 208 210 207 216 228 232 248 257 333 339 46 122 222 101 94 116 123 103 98 115 104 104 98 78 52 43 60 197 188 185 178 180 191 187 191 190 184 172 173 180 182 185 181 184 192 199 205 206 207 206 207 208
212 196 216 212 222 218 228 232 311 355 354 94 115 121 100 94 111 108 132 148 126 114 113 100 96 86 70 50 44 38 161 206 201 192 187 197 197 188 187 185 177 177 183 186 188 193 194 197 200 203 202 202 202 201
180 191 226 231 244 223 296 1 38 45 43 171 159 127 121 120 105 91 86 94 104 100 92 81 76 68 60 46 40 27 17 90 202 214 236 189 200 195 191 183 191 182 181 183 186 195 202 215 204 198 204 201 200 201
190 202 216 223 206 246 328 65 52 82 95 93 132 139 135 131 112 96 98 89 107 92 91 89 87 75 66 43 20 36 22 80 87 168 197 179 186 195 203 199 201 204 193 193 196 205 215 221 211 205 204 205 211 207
205 207 227 265 320 191 157 162 179 105 72 123 132 134 109 101 101 117 91 82 108 132 136 120 93 57 38 20 11 34 49 62 101 92 147 164 169 185 181 185 202 212 209 195 201 210 226 222 206 206 211 213 207 203